Weather History for Bradshaw AFB, HI

Change the Weather History Date:

Saturday, January 4, 2014

  Actual Average Record
Temperature  
Mean Temperature 50 °F -  
Max Temperature 60 °F 63 °F 75 °F (2005)
Min Temperature 41 °F 42 °F 33 °F (2006)
Degree Days  
Heating Degree Days 14    
Moisture  
Dew Point 43 °F    
Average Humidity 79    
Maximum Humidity 97    
Minimum Humidity 28    
Precipitation  
Precipitation 0.01 in - - ()
Sea Level Pressure  
Sea Level Pressure 30.15 in    
Wind  
Wind Speed 4 mph (WNW)    
Max Wind Speed 8 mph    
Max Gust Speed 15 mph    
Visibility 9 miles    
Events Fog , Rain    
Averages and records for this station are not official NWS values.
T = Trace of Precipitation, MM = Missing Value Source: NWS Daily Summary

Daily Weather History Graph

Daily Weather History Graph

Search for Another Location

Airport:

Trip Planner

Search our weather history database for the weather conditions in past years. The results will help you decide how hot, cold, wet, or windy it might be!

Date:

Astronomy

Jan. 04, 2014 Rise Set
Actual Time 6:57 AM HST 5:56 PM HST
Civil Twilight 6:34 AM HST 6:20 PM HST
Nautical Twilight 6:06 AM HST 6:48 PM HST
Astronomical Twilight 5:39 AM HST 7:15 PM HST
Moon 9:43 AM HST (1/4) 9:51 PM HST (1/4)
Length of Visible Light 11h 46m
Length of Day
10h 59m
Waxing Crescent, 17% of the Moon is Illuminated
Jan 4
Waxing Crescent
Jan 7
First Quarter
Jan 15
Full
Jan 23
Last Quarter
Jan 30
New

Hourly Weather History & Observations

Time (HST) Temp. Windchill Dew Point Humidity Pressure Visibility Wind Dir Wind Speed Gust Speed Precip Events Conditions
12:56 AM 48.4 °F - 42.1 °F 79% 30.13 in 12.0 mi WSW 2.3 mph - N/A   Scattered Clouds
1:56 AM 43.7 °F 40.3 °F 40.3 °F 88% 30.11 in 12.0 mi ESE 5.8 mph - N/A   Partly Cloudy
2:36 AM 44.6 °F - 42.8 °F 93% 30.13 in 2.2 mi WNW 2.3 mph - N/A   Mostly Cloudy
2:41 AM 44.6 °F - 42.8 °F 93% 30.13 in 0.5 mi WNW 1.2 mph - N/A Fog Fog
2:51 AM 44.6 °F 43.1 °F 42.8 °F 93% 30.13 in 2.8 mi NNW 3.5 mph - N/A Fog Fog
2:56 AM 45.0 °F 43.5 °F 44.1 °F 97% 30.13 in 12.0 mi NNW 3.5 mph - N/A   Mostly Cloudy
3:06 AM 46.4 °F - 44.6 °F 93% 30.13 in 12.0 mi North 1.2 mph - N/A   Overcast
3:11 AM 46.4 °F - 44.6 °F 93% 30.12 in 12.0 mi NNE 2.3 mph - N/A   Overcast
3:56 AM 46.4 °F - 44.1 °F 92% 30.12 in 12.0 mi NW 2.3 mph - N/A   Mostly Cloudy
4:21 AM 46.4 °F - 44.6 °F 93% 30.13 in 12.0 mi North 1.2 mph - N/A   Overcast
4:46 AM 46.4 °F - 44.6 °F 93% 30.13 in 12.0 mi NNE 2.3 mph - N/A   Mostly Cloudy
4:56 AM 46.4 °F - 44.2 °F 92% 30.13 in 12.0 mi NNE 2.3 mph - N/A   Mostly Cloudy
5:56 AM 43.0 °F - 41.2 °F 93% 30.14 in 10.0 mi ESE 2.3 mph - N/A   Clear
6:56 AM 41.9 °F 40.0 °F 37.4 °F 84% 30.14 in 12.0 mi ESE 3.5 mph - N/A   Partly Cloudy
7:56 AM 49.1 °F - 35.2 °F 59% 30.17 in 12.0 mi Calm Calm - N/A   Scattered Clouds
8:56 AM 52.7 °F - 37.9 °F 57% 30.19 in 12.0 mi NNW 2.3 mph - N/A   Mostly Cloudy
9:56 AM 60.4 °F - 27.3 °F 28% 30.19 in 12.0 mi West 5.8 mph - N/A   Mostly Cloudy
10:56 AM 59.4 °F - 43.5 °F 56% 30.18 in 12.0 mi WSW 8.1 mph - N/A   Clear
11:56 AM 59.2 °F - 44.8 °F 59% 30.16 in 12.0 mi SW 5.8 mph - N/A   Scattered Clouds
12:56 PM 58.3 °F - 43.7 °F 58% 30.14 in 12.0 mi WSW 4.6 mph - N/A   Mostly Cloudy
1:56 PM 55.8 °F - 46.2 °F 70% 30.12 in 12.0 mi WSW 6.9 mph - N/A   Mostly Cloudy
2:09 PM 55.4 °F - 46.4 °F 72% 30.12 in 9.0 mi WSW 5.8 mph - N/A Rain Light Rain Showers
2:27 PM 55.4 °F - 46.4 °F 72% 30.12 in 7.0 mi WSW 4.6 mph - N/A   Mostly Cloudy
2:32 PM 53.6 °F - 46.4 °F 77% 30.12 in 4.0 mi South 4.6 mph - N/A   Mostly Cloudy
2:37 PM 53.6 °F - 48.2 °F 82% 30.12 in 2.5 mi NNW 3.5 mph - N/A   Mostly Cloudy
2:42 PM 53.6 °F - 46.4 °F 77% 30.12 in 2.5 mi NW 2.3 mph - N/A Rain Light Rain Showers
2:56 PM 52.2 °F - 48.0 °F 86% 30.12 in 2.8 mi NW 2.3 mph - 0.01 in Rain Light Rain Showers
3:01 PM 51.8 °F - 50.0 °F 94% 30.12 in 3.0 mi WSW 5.8 mph - N/A Rain Light Rain Showers
3:13 PM 51.8 °F - 50.0 °F 94% 30.12 in 4.0 mi West 6.9 mph - N/A   Scattered Clouds
3:18 PM 51.8 °F - 50.0 °F 94% 30.13 in 6.0 mi West 5.8 mph - N/A   Mostly Cloudy
3:56 PM 52.2 °F - 50.0 °F 92% 30.13 in 9.0 mi West 8.1 mph - N/A   Overcast
4:36 PM 51.8 °F - 48.2 °F 88% 30.15 in 9.0 mi West 5.8 mph - N/A   Overcast
4:41 PM 51.8 °F - 48.2 °F 88% 30.16 in 9.0 mi WNW 4.6 mph - N/A   Overcast
4:46 PM 51.8 °F - 50.0 °F 94% 30.16 in 9.0 mi West 6.9 mph - N/A   Overcast
4:51 PM 51.8 °F - 50.0 °F 94% 30.16 in 9.0 mi West 4.6 mph - N/A   Overcast
4:56 PM 52.0 °F - 48.0 °F 86% 30.16 in 9.0 mi WNW 4.6 mph - N/A   Mostly Cloudy
5:01 PM 51.8 °F - 48.2 °F 88% 30.16 in 10.0 mi ENE 4.6 mph - N/A   Mostly Cloudy
5:56 PM 53.1 °F - 41.9 °F 66% 30.17 in 12.0 mi NW 5.8 mph - N/A   Mostly Cloudy
6:56 PM 53.8 °F - 39.4 °F 58% 30.19 in 12.0 mi NNW 5.8 mph - N/A   Overcast
7:56 PM 53.6 °F - 36.0 °F 51% 30.20 in 12.0 mi West 6.9 mph 15.0 mph N/A   Mostly Cloudy
8:56 PM 51.8 °F - 39.4 °F 63% 30.22 in 12.0 mi West 3.5 mph - N/A   Mostly Cloudy
9:56 PM 48.2 °F - 34.3 °F 59% 30.22 in 12.0 mi North 4.6 mph - N/A   Clear
10:56 PM 49.1 °F - 31.8 °F 51% 30.21 in 12.0 mi North 5.8 mph - N/A   Clear
11:56 PM 46.0 °F - 36.0 °F 68% 30.20 in 12.0 mi WSW 2.3 mph - N/A   Mostly Cloudy